Flag for Russia Weather past 2 weeks in Surgut, Russia

Now
50 °F

Sprinkles. Scattered clouds.


Feels Like: 45 °F
Forecast: 44 / 51 °F
Wind: 13 mph from Southeast

Location: Surgut Airport

Current Time: Oct 2, 2014 at 8:17:03 PM

Latest Report: Oct 2, 2014 at 7:30 PM


Visibility: 4 mi

Pressure: 29.80 "Hg

Humidity: 82%

Dew point: 45 °F

Location of SurgutLocation

Historic Weather in Surgut — Graph

°F

Surgut temperature yesterday

Maximum temperature yesterday: 50 °F (at 2:30 PM)
Minimum temperature yesterday: 39 °F (at 9:00 PM)
Average temperature yesterday: 43 °F

Past Weeks' High & Low Weather Summary

 TemperatureHumidityPressure
High63 °F (Sep 24, 4:30 PM)100% (Sep 17, 8:00 PM)30.54 "Hg (Sep 17, 8:00 PM)
Low25 °F (Sep 27, 2:00 AM)32% (Sep 28, 3:30 PM)29.15 "Hg (Sep 18, 3:00 AM)
Average40 °F77%29.93 "Hg
* Reported Sep 17 7:00 PM — Oct 2 7:00 PM, Surgut, Weather by CustomWeather, © 2014

Note: Actual official high and low records may vary slightly from our data, if they occured in-between our weather recording intervals... More about our weather records

Advertising

Surgut weather history for previous 24 hours

 ConditionsComfort  
Time TempWeatherWind HumidityBarometerVisibility
7:00 PM
Oct 2
50 °FSprinkles. Scattered clouds.10 mph82%29.80 "Hg4 mi
6:30 PM50 °FScattered clouds.10 mph76%29.80 "Hg4 mi
6:00 PM52 °FSprinkles. Scattered clouds.10 mph72%29.80 "Hg4 mi
5:30 PM52 °FScattered clouds.10 mph72%29.80 "Hg4 mi
5:00 PM52 °FScattered clouds.13 mph72%29.80 "Hg4 mi
4:30 PM52 °FScattered clouds.13 mph67%29.80 "Hg4 mi
4:00 PM50 °FScattered clouds.10 mph71%29.80 "Hg4 mi
3:30 PM50 °FScattered clouds.8 mph71%29.80 "Hg4 mi
3:00 PM50 °FScattered clouds.8 mph71%29.80 "Hg4 mi
2:30 PM48 °FScattered clouds.8 mph76%29.80 "Hg4 mi
2:00 PM48 °FScattered clouds.10 mph76%29.80 "Hg4 mi
1:30 PM48 °FScattered clouds.13 mph76%29.80 "Hg4 mi
1:00 PM46 °FSprinkles. Scattered clouds.13 mph87%29.80 "Hg4 mi
12:30 PM46 °FSprinkles. Scattered clouds.13 mph87%29.80 "Hg4 mi
12:00 PM45 °FBroken clouds.8 mph93%29.80 "Hg4 mi
11:30 AM45 °FBroken clouds.8 mph93%29.80 "Hg4 mi
11:00 AM45 °FSprinkles. Broken clouds.8 mph93%29.83 "Hg4 mi
10:30 AM45 °FSprinkles. Partly sunny.10 mph93%29.83 "Hg4 mi
10:00 AM45 °FSprinkles. Partly sunny.10 mph87%29.83 "Hg4 mi
9:30 AM45 °FMostly cloudy.10 mph87%29.83 "Hg4 mi
9:00 AM45 °FMore clouds than sun.10 mph87%29.83 "Hg4 mi
8:30 AM45 °FMore clouds than sun.10 mph87%29.83 "Hg4 mi
8:00 AM43 °FMostly cloudy.10 mph93%29.83 "Hg4 mi
7:30 AM43 °FMostly cloudy.10 mph93%29.83 "Hg4 mi
7:00 AM45 °FMostly cloudy.10 mph87%29.83 "Hg4 mi
6:30 AM45 °FLight rain. Mostly cloudy.10 mph87%29.83 "Hg4 mi
6:00 AM45 °FPartly cloudy.10 mph87%29.83 "Hg4 mi
5:30 AM45 °FPartly cloudy.8 mph87%29.83 "Hg4 mi
5:00 AM45 °FPartly cloudy.10 mph87%29.86 "Hg4 mi
4:30 AM45 °FPartly cloudy.10 mph87%29.86 "Hg4 mi
4:00 AM45 °FPartly cloudy.10 mph87%29.86 "Hg4 mi
3:30 AM45 °FPartly cloudy.8 mph87%29.86 "Hg4 mi
3:00 AM43 °FPartly cloudy.8 mph93%29.86 "Hg4 mi
2:30 AM43 °FPartly cloudy.8 mph93%29.86 "Hg4 mi
2:00 AM43 °FPartly cloudy.8 mph93%29.86 "Hg4 mi
1:30 AM45 °FPartly cloudy.6 mph87%29.86 "Hg4 mi
1:00 AM45 °FPartly cloudy.6 mph87%29.86 "Hg4 mi
12:30 AM45 °FPartly cloudy.6 mph87%29.86 "Hg4 mi
12:00 AM45 °FPartly cloudy.3 mph87%29.86 "Hg4 mi
11:30 PM
Oct 1
45 °FPartly cloudy.3 mph87%29.86 "Hg4 mi
11:00 PM45 °FPartly cloudy.6 mph87%29.86 "Hg4 mi
10:30 PM43 °FPartly cloudy.3 mph93%29.86 "Hg4 mi
10:00 PM41 °FPassing clouds.6 mph93%29.86 "Hg4 mi
9:30 PM39 °FPassing clouds.3 mph100%29.86 "Hg4 mi
9:00 PM39 °FPassing clouds.3 mph100%29.86 "Hg4 mi
8:30 PM41 °FPassing clouds.1 mph93%29.86 "Hg4 mi
8:00 PM45 °FPassing clouds.No wind87%29.86 "Hg4 mi
Weather by CustomWeather, © 2014

See weather overviewHow to use our weather pages